Location: Colonia Mina de C?rbuni
(46.1667°N, 22.7167°E)
Time: 15:07:31
(UTC+00:00)

Courier 1B - Pass Details

Date: 23 April 2024
Orbit: 962 x 1208 km, 28.3° (Epoch: 23 May)

Event Time Altitude Azimuth Distance (km) Brightness Sun altitude
Rises 23:07:14 0° 223° (SW) 4,070 - -30.2°
Reaches altitude 10° 23:11:24 10° 203° (SSW) 3,076 - -30.1°
Maximum altitude 23:15:39 16° 168° (SSE) 2,611 - -29.9°
Drops below altitude 10° 23:19:48 10° 134° (SE) 2,986 - -29.7°
Exits shadow 23:22:45 - 118° (ESE) 3,636 10.4 -29.6°
Sets 23:23:45 0° 114° (ESE) 3,893 10.6 -29.5°
